GFSFLT2_sfc_thetae_057.txt.gz
Theta_e
341 342 344 344 345 344 344 343 342 341 340 338 337 335 332 328 324 321 320 320 319 320 320 318 314 312 303
340 334 336 339 341 342 340 338 336 336 337 335 333 335 332 328 325 322 320 319 319 318 316 314 311 308 300
340 335 332 334 335 335 334 331 329 332 335 333 331 333 332 330 327 324 320 318 315 315 313 310 306 298 300
336 337 336 336 338 338 334 333 333 334 333 332 326 328 329 328 330 325 321 316 309 303 303 305 299 299 299
322 335 336 335 335 337 332 333 334 331 329 328 325 322 321 319 318 315 311 309 307 306 305 304 302 300 299
311 328 334 331 333 333 334 334 331 329 326 325 325 324 322 318 315 313 311 310 309 309 307 306 304 302 302
309 330 329 327 328 328 331 333 332 329 328 327 324 322 321 319 315 312 311 310 309 309 308 306 304 302 300
318 324 323 323 323 323 323 326 328 327 324 321 319 318 317 316 314 313 311 308 307 310 308 305 302 300 300
319 318 318 319 319 319 318 319 320 321 319 317 316 314 314 314 312 309 306 305 304 304 303 301 299 298 296
315 315 314 315 315 315 315 315 315 315 316 314 312 310 310 308 306 304 301 300 298 299 298 297 296 294 292
309 308 307 307 308 309 310 310 309 308 309 309 306 305 305 302 297 295 293 295 297 297 296 294 292 289 286
304 302 301 300 299 301 303 303 302 301 301 301 299 300 298 294 291 290 291 290 292 294 294 291 289 288 285
302 301 301 296 296 296 296 296 297 295 293 293 292 292 292 291 289 289 288 292 287 288 289 289 288 285 284
303 296 296 294 291 292 293 293 293 291 290 291 290 288 287 287 286 286 286 284 283 283 291 289 286 289 286
294 293 291 291 291 290 290 290 289 289 288 288 286 286 285 285 284 283 283 283 281 282 282 287 281 284 281
295 294 294 294 292 290 289 288 286 286 285 285 285 284 283 283 283 282 283 282 282 280 282 282 280 280 277

GFSFLT2_sfc_thetae_060.txt.gz
Theta_e
340 342 344 344 345 344 344 343 341 340 339 337 336 332 329 326 323 322 321 322 321 320 317 315 314 314 304
338 334 337 339 341 341 340 337 335 335 335 334 332 333 330 327 324 323 321 321 319 317 315 313 311 310 304
340 335 332 334 336 335 334 331 328 333 333 330 329 332 331 329 325 322 319 316 315 314 312 310 306 300 305
339 337 335 336 337 338 335 331 331 333 333 331 325 326 327 326 324 321 318 314 308 303 303 305 300 302 307
325 335 333 332 333 333 332 332 334 331 328 328 325 322 319 317 313 312 309 308 307 306 304 302 302 304 306
314 324 334 332 333 332 332 332 332 330 327 325 323 323 318 315 312 310 309 309 308 306 304 302 301 302 305
310 322 330 331 331 332 333 332 330 328 326 324 324 322 319 315 312 309 310 308 307 306 304 302 299 297 296
310 326 326 326 326 327 328 331 330 328 326 322 320 318 316 316 314 313 311 309 308 305 301 299 296 294 293
314 321 320 321 322 321 321 324 326 325 323 320 317 315 314 314 311 308 306 307 304 300 297 295 292 291 289
316 316 316 317 317 317 317 317 319 320 319 317 314 312 312 309 307 304 304 302 299 296 293 291 288 288 287
310 310 309 310 311 312 313 313 312 314 314 312 310 308 306 303 301 300 297 298 295 292 288 286 285 284 284
305 304 303 302 302 304 307 307 307 307 307 307 305 302 298 296 295 294 295 292 294 289 287 285 284 283 283
304 304 303 299 299 298 299 300 301 301 301 302 300 297 294 292 292 295 294 292 288 288 286 285 285 282 281
307 301 299 296 293 294 295 295 296 296 296 296 295 290 289 289 290 290 291 284 283 284 287 286 284 286 284
298 294 293 294 293 293 292 292 291 292 291 290 289 287 286 287 289 286 285 286 282 281 283 289 283 285 282
296 295 297 296 294 293 291 290 289 289 288 287 286 285 284 283 283 283 282 282 282 280 280 281 279 280 278

GFSFLT2_sfc_thetae_063.txt.gz
Theta_e
341 342 344 345 345 344 343 342 340 339 338 335 334 330 326 325 324 324 323 321 319 318 320 320 320 319 321
345 335 337 340 341 341 340 337 334 334 334 332 330 330 327 326 324 322 321 319 318 317 318 317 316 319 322
342 338 333 334 336 335 334 330 329 335 333 332 329 330 328 325 321 320 320 318 316 315 316 314 315 317 321
340 338 341 340 341 340 339 337 337 335 334 330 325 325 325 324 322 320 317 313 309 308 310 312 313 315 316
335 338 338 337 340 341 338 337 335 333 331 330 325 322 319 315 315 314 313 311 309 308 309 310 311 311 311
322 329 338 338 338 337 337 337 333 331 330 326 324 321 318 317 316 315 313 310 308 307 307 305 305 306 306
316 321 331 337 338 337 335 336 336 332 329 326 326 323 318 316 316 314 311 309 306 304 301 299 300 299 299
315 321 329 332 332 334 334 334 333 332 327 325 324 320 318 316 316 313 311 306 303 300 298 296 294 293 293
314 321 326 328 328 328 328 331 330 329 326 323 321 317 316 315 311 310 307 303 299 296 295 293 291 291 290
316 321 322 321 323 324 323 325 326 325 325 322 319 315 315 311 309 308 304 299 296 293 291 290 290 290 289
316 316 318 316 317 318 318 319 321 321 320 319 316 312 310 308 306 304 301 297 291 289 288 288 288 288 288
311 308 309 307 307 311 312 313 314 315 315 315 312 308 306 302 302 301 298 295 291 289 286 286 286 287 287
308 307 307 305 303 303 305 307 309 310 310 310 308 302 303 301 301 299 297 291 289 289 287 286 285 286 286
310 307 305 301 298 299 299 300 302 304 306 305 302 298 297 298 298 298 295 291 289 290 289 290 285 287 285
308 299 296 296 297 295 295 296 296 300 300 300 297 294 296 300 298 298 295 292 289 288 291 295 289 290 288
300 302 301 302 299 297 297 294 293 295 295 296 292 293 295 299 297 296 294 293 291 289 285 284 286 290 287

GFSFLT2_sfc_thetae_069.txt.gz
Theta_e
341 341 343 343 343 342 341 339 337 333 332 332 331 329 329 326 324 325 326 328 329 328 329 329 329 328 326
345 335 338 339 340 340 338 335 332 332 330 329 327 328 326 324 323 323 326 327 327 326 326 327 327 327 327
343 339 334 335 336 334 332 328 326 329 327 327 325 326 325 323 323 323 325 324 323 323 324 325 324 323 325
340 343 343 343 342 339 336 332 335 333 331 326 321 323 324 323 322 322 323 323 322 321 320 322 322 321 322
340 343 344 344 344 342 338 337 338 333 329 327 323 321 319 317 316 316 317 319 320 320 319 319 320 319 318
343 342 342 342 342 341 341 338 336 331 330 327 325 323 323 322 320 319 318 318 317 317 316 315 316 316 315
342 341 342 341 343 341 341 340 338 332 331 330 324 321 321 322 320 318 317 315 313 313 311 310 311 312 310
338 339 339 341 341 342 340 340 339 335 333 329 323 320 321 321 318 316 314 311 309 308 304 304 305 306 306
334 337 337 339 339 340 341 341 339 336 332 329 324 322 322 321 317 311 306 304 302 301 300 299 299 299 300
332 334 335 337 338 338 339 340 339 337 334 329 327 325 320 318 310 306 303 300 298 298 298 297 296 296 296
331 332 333 334 335 337 338 338 339 337 335 330 326 322 318 313 310 303 301 301 297 296 296 296 295 294 294
328 328 329 331 330 333 335 334 333 336 333 330 324 318 315 312 306 304 299 299 296 294 293 293 293 293 294
323 321 322 322 326 324 325 328 329 327 327 325 320 316 314 311 307 304 296 293 293 294 291 291 291 292 291
319 319 319 318 319 320 319 320 321 321 323 321 317 314 312 308 303 297 294 293 292 293 294 292 287 288 289
317 318 317 317 316 314 315 313 311 313 316 316 315 313 310 307 302 297 295 296 291 293 296 298 290 290 287
317 316 315 313 311 311 313 312 307 307 310 312 313 312 310 308 304 298 298 297 295 293 297 299 299 295 289

GFSFLT2_sfc_thetae_072.txt.gz
Theta_e
341 342 343 343 342 341 339 336 334 333 334 334 333 329 327 327 329 330 330 330 331 331 332 331 329 328 325
339 335 337 339 339 339 336 333 330 330 330 330 328 328 325 326 327 329 328 329 329 329 330 328 327 326 323
341 335 333 334 335 333 330 327 324 322 321 323 324 326 325 325 327 327 327 325 324 325 327 325 324 322 321
341 337 338 338 336 333 329 325 326 324 323 322 320 323 324 324 325 326 325 325 320 315 316 320 318 317 316
338 340 339 338 336 333 329 327 331 323 320 319 317 316 315 316 317 317 319 316 315 314 313 314 313 312 311
338 339 337 338 337 335 332 330 329 324 322 317 316 315 313 311 310 312 313 313 312 311 310 311 310 309 311
338 337 337 337 336 336 334 332 331 326 324 320 319 318 316 318 314 312 311 310 308 307 307 307 306 305 307
337 336 336 335 337 336 336 335 333 328 326 322 317 318 318 317 313 314 310 306 304 302 302 302 301 302 303
332 334 335 335 335 335 334 336 334 330 327 323 317 317 318 317 313 307 305 303 298 297 296 295 296 296 298
331 331 330 331 332 333 335 335 334 333 330 325 318 317 319 314 307 303 301 299 297 293 293 291 291 292 292
329 328 328 329 329 330 331 334 334 333 330 326 321 318 317 310 306 303 299 298 296 294 292 290 289 289 289
325 325 325 325 326 328 328 329 332 333 331 327 325 318 313 309 305 301 298 296 295 294 292 291 288 288 288
323 322 321 322 322 324 325 326 328 330 332 327 323 317 313 309 304 301 298 294 293 293 290 289 288 287 286
322 322 321 320 318 320 319 320 322 323 326 324 320 315 313 309 305 299 296 293 292 291 290 289 284 283 285
320 317 312 311 310 310 312 315 317 318 322 321 318 316 313 310 304 297 295 294 291 292 292 293 285 283 281
315 313 312 311 309 310 310 309 312 312 317 319 317 315 313 310 305 298 297 297 294 291 292 295 294 286 282

GFSFLT2_sfc_thetae_075.txt.gz
Theta_e
340 341 342 342 341 338 336 335 336 336 336 333 331 329 330 331 331 331 332 333 333 333 332 330 329 327 322
339 335 336 338 339 337 334 332 330 331 332 331 328 329 329 330 330 330 330 330 330 330 329 327 326 325 321
338 334 332 333 333 331 328 325 322 322 322 322 324 327 328 329 329 329 327 327 326 326 326 324 321 317 318
340 334 335 334 333 329 325 321 321 320 320 321 320 324 327 327 328 327 326 323 318 314 315 318 313 312 312
339 337 336 335 332 328 324 323 322 320 319 318 316 315 316 318 319 320 315 314 312 312 312 312 311 309 308
339 338 337 335 333 328 324 325 322 318 316 315 314 313 312 312 311 311 311 310 308 309 309 308 307 306 307
338 338 337 336 334 331 327 327 324 319 315 314 313 313 310 309 310 310 309 307 305 306 305 305 304 305 305
336 337 335 336 335 334 331 329 326 323 317 315 314 313 311 312 311 309 307 304 302 303 301 302 301 303 301
336 337 335 335 335 334 333 331 329 326 320 318 316 314 314 313 313 310 307 301 300 298 296 297 298 299 299
335 335 334 335 334 335 334 333 332 328 325 319 316 315 314 311 308 307 302 298 294 295 293 291 291 292 293
331 333 329 331 332 333 334 333 332 329 327 321 318 316 313 308 305 303 299 298 294 292 292 291 289 288 289
329 329 326 325 327 330 331 332 332 331 328 324 320 317 315 308 303 302 298 296 294 292 291 290 289 287 286
325 325 326 326 325 321 326 327 330 331 329 325 322 317 313 308 304 301 297 295 293 292 290 289 289 286 285
328 327 326 324 318 325 320 322 327 330 329 326 323 317 313 309 303 300 297 294 292 292 289 288 284 284 286
325 319 314 314 311 313 315 319 319 324 328 326 322 318 314 310 304 300 297 295 292 292 291 292 285 284 281
320 319 319 319 317 320 321 316 311 315 321 323 321 318 315 312 306 301 299 298 296 291 292 294 294 287 282